Location: Ch?enovice
(49.7164°N, 15.2160°E)
Time: 21:20:26
(UTC+00:00)

COSMOS 2428 - Pass Details

Date: 23 May 2024
Orbit: 844 x 856 km, 70.9° (Epoch: 20 June)

Event Time Altitude Azimuth Distance (km) Brightness Sun altitude
Rises 01:57:23 0° 332° (NNW) 3,415 6.1 -9.0°
Reaches altitude 10° 01:59:54 10° 337° (NNW) 2,477 5.5 -8.7°
Maximum altitude 02:05:30 58° 56° (NE) 987 3.5 -8.1°
Drops below altitude 10° 02:11:05 10° 135° (SE) 2,468 5.1 -7.4°
Sets 02:13:34 0° 140° (SE) 3,402 5.8 -7.2°
